Wind_Speed
28 27 26 24 23 22 21 22 22 24 26 27 25 25 26 24 16 11 9 8 8 4 5 6 6 8 9 10 10 13 17 25 11 7 17 32 29 9 32 23 19 17 16 11
31 30 29 27 25 25 25 24 23 26 27 26 25 26 24 19 10 9 12 10 8 7 6 8 8 12 12 9 9 12 15 21 20 5 9 36 21 28 23 20 20 18 14 13
33 31 29 27 27 27 27 27 25 25 27 26 25 25 22 17 11 12 13 12 11 8 8 10 10 16 20 17 12 12 17 18 19 3 9 25 19 26 23 18 21 18 17 17
35 34 32 30 29 29 29 29 27 26 27 25 26 25 23 16 15 14 14 14 12 11 10 14 21 20 19 19 17 13 10 12 12 4 13 20 20 16 22 23 21 21 18 15
37 36 34 32 31 30 30 31 29 29 28 26 24 18 9 7 12 22 16 17 12 13 5 19 40 26 20 18 16 15 13 10 5 3 8 10 17 21 22 28 28 24 21 18
38 36 34 32 31 31 31 33 32 31 28 26 22 14 12 19 24 22 15 19 15 13 9 15 17 19 22 21 20 16 15 12 10 7 8 12 17 17 26 28 31 26 24 21
38 35 34 33 32 32 32 34 34 31 28 24 24 17 24 26 21 22 17 22 21 19 20 24 33 32 27 25 22 20 16 15 16 16 15 13 19 21 29 29 24 30 28 26
37 35 35 35 35 34 34 34 32 28 25 20 19 20 21 39 38 33 24 30 22 25 27 28 31 32 32 25 24 23 25 20 19 21 22 22 23 22 26 32 33 33 31 30
37 35 38 36 35 34 34 33 29 27 24 22 18 16 18 30 46 41 37 28 29 30 32 37 39 39 37 34 28 26 26 29 27 27 27 28 28 27 26 25 27 21 47 36
38 36 37 36 36 36 33 29 30 26 23 18 10 6 10 38 31 33 30 29 34 29 26 27 34 38 42 43 39 35 33 32 34 33 32 32 32 31 32 30 27 40 40 43
42 40 36 38 36 34 30 31 28 24 22 22 20 25 37 36 39 35 33 30 34 39 42 50 46 46 50 49 48 44 42 38 37 37 38 38 37 37 36 37 37 32 29 36
42 40 35 34 32 33 30 30 29 28 27 27 30 34 36 39 35 38 43 36 33 43 43 48 50 57 60 59 57 52 50 49 46 42 40 42 42 41 41 43 42 38 32 34
35 34 33 32 33 28 27 29 28 28 28 27 30 39 33 36 35 40 48 45 43 45 46 39 47 39 66 52 62 59 53 52 50 48 44 45 43 45 47 46 50 50 44 42
35 34 34 33 31 25 18 35 29 29 29 30 33 41 39 38 33 40 49 53 57 50 51 43 51 52 76 75 66 64 58 55 51 51 47 43 45 47 50 51 50 53 57 50
34 33 34 31 27 13 33 25 36 32 33 34 37 40 45 44 46 49 50 55 57 62 58 59 63 59 62 64 62 57 53 54 53 53 50 47 45 43 50 52 48 54 55 52
36 34 32 31 30 32 38 33 33 32 34 39 40 46 44 46 52 59 59 63 64 64 65 67 65 63 59 55 59 58 57 60 61 60 59 57 53 49 48 52 52 53 58 59
36 37 34 32 29 25 28 36 32 34 39 42 45 50 47 53 58 61 62 64 66 68 68 63 61 59 62 66 66 64 64 69 66 66 66 64 60 55 52 52 54 56 57 62
27 30 32 31 26 26 35 31 31 37 44 43 47 53 57 57 60 66 66 64 64 64 63 64 65 69 70 70 73 74 72 72 77 76 75 73 71 67 60 55 55 58 60 61
24 25 26 29 29 30 33 26 38 44 44 43 51 57 57 60 65 72 68 67 61 61 65 72 76 76 76 76 77 79 80 82 83 83 81 79 76 72 69 64 61 61 64 65
25 26 27 29 30 32 27 33 42 46 47 48 53 56 61 65 68 71 65 63 67 71 74 78 81 82 83 85 85 85 81 71 64 62 58 56 58 64 67 68 67 66 70 70
27 28 29 30 31 32 31 40 45 45 48 51 54 60 64 66 65 62 65 72 77 77 81 81 84 87 89 84 71 62 58 54 50 50 50 49 48 50 57 66 72 72 75 77
30 31 32 31 33 32 38 40 46 48 52 56 60 63 62 59 60 64 71 75 79 83 87 91 87 78 65 56 53 47 43 40 37 35 37 38 41 43 49 57 68 76 79 84
33 34 34 35 34 37 40 43 44 51 55 61 61 59 57 59 65 70 77 80 83 87 85 70 59 49 45 41 41 41 41 41 40 35 34 35 35 36 42 51 60 74 80 86
38 38 36 38 36 40 43 46 49 53 58 57 55 56 58 64 70 75 79 83 82 67 52 44 38 36 34 37 38 39 39 42 45 43 38 35 35 39 39 45 53 65 78 86
34 42 38 37 40 44 43 49 53 56 53 51 54 58 63 69 74 76 80 66 51 44 43 38 37 33 32 32 33 35 37 35 37 35 35 37 36 38 37 43 49 57 72 82
39 40 39 38 43 46 48 51 51 48 48 52 56 61 67 70 73 71 52 47 49 52 52 49 46 40 37 38 37 43 44 41 39 37 37 39 39 40 43 44 48 53 62 77
Wind_Direction
241 241 246 252 260 269 278 285 298 303 310 315 318 322 324 321 321 309 287 280 290 287 311 305 319 317 333 347 334 347 352 354 336 220 183 181 192 246 174 198 200 206 171 183
242 246 250 254 260 270 278 285 296 303 312 314 318 322 321 318 308 286 278 284 304 305 287 291 311 314 320 335 327 328 343 353 352 271 196 192 193 177 198 202 199 204 197 197
241 246 251 255 262 271 278 286 292 301 308 311 316 318 318 308 274 259 265 282 298 292 287 296 313 320 320 320 322 325 327 349 356 33 169 181 183 205 212 214 201 203 206 212
241 245 250 256 263 271 280 285 291 299 305 308 313 318 328 316 294 273 274 279 292 293 294 322 318 311 309 310 314 316 317 329 353 29 157 175 187 197 211 214 222 218 216 219
241 247 253 258 264 272 280 286 293 300 302 306 307 316 10 310 346 268 262 266 275 288 338 193 293 288 294 292 292 295 296 289 312 12 179 216 199 203 213 218 232 226 221 227
244 248 254 260 267 273 280 288 292 296 301 299 296 296 135 144 190 236 258 266 264 263 243 168 234 297 283 283 285 284 281 280 265 244 240 226 220 220 203 227 225 229 234 232
245 250 258 264 271 277 280 286 290 294 291 295 282 286 202 197 220 251 258 267 266 262 253 253 268 278 276 281 284 284 281 268 263 258 246 248 241 233 219 221 223 227 234 239
249 254 261 267 272 275 279 284 287 289 285 278 284 278 219 219 229 251 260 270 270 268 259 260 265 269 276 273 280 290 289 277 257 250 254 249 239 244 241 235 234 234 234 243
252 256 261 264 269 274 278 281 279 273 279 266 288 291 278 237 233 255 251 268 272 273 277 276 271 273 273 274 272 267 272 275 268 257 248 253 251 245 243 241 230 276 241 232
252 253 260 266 270 274 277 271 270 274 265 258 170 318 194 268 262 257 260 270 269 264 288 286 290 283 286 286 286 284 280 275 273 268 261 250 250 244 247 242 226 228 236 233
250 255 258 265 269 270 267 264 266 265 254 237 221 200 226 257 269 272 270 274 282 278 287 290 295 293 288 287 285 284 282 276 270 268 266 261 250 248 245 244 236 234 239 233
250 255 258 259 261 260 261 261 252 247 241 239 241 242 251 261 271 278 281 270 271 279 282 288 295 295 296 293 289 288 286 283 279 271 266 260 257 249 245 242 239 236 241 241
252 252 251 250 253 257 263 260 250 245 246 249 252 261 264 263 275 290 286 283 282 284 287 294 303 297 294 286 289 287 286 284 281 275 269 266 256 251 248 243 237 238 237 238
244 246 245 245 243 245 232 260 252 248 247 250 258 267 266 268 274 277 282 292 292 288 292 282 263 279 273 288 288 287 285 283 281 277 274 267 258 247 247 244 238 235 236 234
246 244 243 243 246 277 261 227 252 249 251 255 262 269 274 285 286 284 287 289 287 289 291 287 285 282 281 284 286 286 287 286 280 275 272 269 264 253 243 241 238 233 233 232
246 245 243 246 244 239 244 239 244 251 260 264 269 273 282 286 291 291 292 290 293 295 294 294 295 293 292 289 288 288 287 282 278 276 275 272 267 259 250 240 234 232 228 226
247 242 240 246 254 237 235 238 245 253 262 270 276 283 288 289 288 288 290 294 296 297 296 295 296 294 291 290 288 286 287 284 280 277 274 270 265 259 251 241 235 231 229 226
238 227 231 241 237 231 241 248 258 265 266 278 285 288 285 288 289 291 294 296 297 296 296 296 294 293 291 290 290 289 286 282 281 277 273 270 266 261 253 245 235 230 227 224
221 223 226 229 236 239 251 262 267 270 278 287 285 286 292 294 297 298 302 300 299 297 295 296 296 295 294 293 290 289 287 284 280 277 273 268 263 258 254 245 236 227 225 221
223 223 227 236 245 255 264 266 267 275 286 285 288 293 296 299 300 300 300 300 299 298 298 297 297 296 296 293 292 291 288 284 280 277 273 267 260 254 248 241 233 226 219 221
227 235 240 247 253 262 271 271 280 285 287 290 292 296 297 299 299 299 300 301 300 298 297 297 296 296 295 294 291 287 284 284 282 279 272 266 258 250 243 236 228 222 217 215
237 242 251 258 266 273 276 282 286 291 292 295 297 298 299 299 301 300 299 300 300 300 300 300 299 297 296 292 292 291 287 283 283 283 280 269 260 252 246 236 229 221 216 214
252 254 260 267 272 280 281 286 290 291 295 297 299 299 301 303 302 303 304 303 303 302 301 301 299 297 293 290 290 294 288 290 290 288 283 275 270 256 246 237 232 225 217 215
257 261 268 272 280 280 286 291 293 295 296 297 297 300 303 305 305 305 305 305 304 303 301 302 307 306 301 294 294 293 289 287 289 292 289 279 267 262 254 240 234 228 222 217
255 265 268 276 279 283 289 292 296 298 297 297 302 306 307 307 307 309 310 309 305 302 301 303 307 306 307 302 298 298 290 289 283 280 281 283 273 259 254 248 237 230 226 222
259 266 272 277 279 286 291 294 296 296 298 303 308 308 309 310 312 313 310 310 309 304 301 299 299 301 305 306 296 294 291 288 284 271 273 276 270 266 257 252 244 234 228 225
Height
10965 10967 10968 10969 10969 10970 10969 10970 10970 10968 10967 10964 10962 10959 10956 10952 10950 10949 10951 10954 10955 10955 10954 10952 10952 10950 10949 10946 10944 10945 10944 10940 10936 10939 10940 10940 10947 10950 10948 10949 10953 10955 10957 10959
10961 10963 10964 10966 10966 10966 10966 10967 10968 10965 10962 10961 10960 10958 10954 10950 10948 10948 10949 10952 10955 10956 10956 10956 10956 10953 10951 10948 10945 10943 10942 10940 10936 10934 10937 10937 10945 10948 10948 10949 10953 10954 10957 10959
10956 10958 10960 10961 10962 10962 10962 10963 10964 10962 10959 10958 10957 10955 10952 10949 10947 10946 10947 10949 10954 10958 10958 10957 10957 10956 10954 10950 10946 10943 10940 10940 10938 10935 10935 10938 10942 10944 10944 10948 10951 10954 10957 10959
10950 10953 10955 10957 10957 10958 10958 10957 10959 10958 10957 10956 10954 10953 10951 10950 10949 10947 10948 10950 10953 10956 10956 10956 10955 10953 10952 10949 10946 10943 10942 10940 10940 10937 10938 10940 10942 10945 10944 10947 10949 10952 10956 10958
10944 10947 10949 10951 10952 10953 10952 10951 10953 10953 10952 10951 10950 10951 10950 10944 10946 10944 10945 10949 10953 10953 10954 10944 10948 10947 10948 10950 10946 10943 10941 10941 10940 10939 10940 10940 10942 10943 10942 10944 10946 10950 10954 10956
10938 10941 10943 10945 10947 10947 10947 10946 10946 10948 10947 10946 10946 10949 10949 10943 10940 10940 10942 10946 10951 10953 10953 10951 10927 10935 10944 10947 10945 10941 10939 10938 10938 10938 10937 10938 10937 10938 10939 10942 10944 10947 10950 10952
10932 10936 10937 10939 10940 10941 10941 10940 10940 10941 10940 10942 10939 10944 10946 10937 10938 10939 10938 10942 10948 10954 10955 10952 10944 10942 10944 10945 10942 10939 10938 10936 10935 10935 10934 10935 10933 10933 10935 10938 10941 10943 10945 10947
10926 10929 10931 10932 10933 10934 10934 10933 10933 10933 10934 10934 10935 10936 10941 10935 10933 10931 10936 10939 10945 10944 10945 10947 10946 10945 10942 10941 10935 10932 10930 10932 10931 10930 10929 10929 10930 10930 10931 10934 10939 10945 10942 10942
10919 10923 10922 10924 10925 10926 10926 10926 10926 10928 10929 10929 10934 10932 10930 10930 10931 10928 10936 10939 10932 10932 10930 10929 10927 10931 10932 10930 10930 10928 10928 10924 10924 10922 10922 10923 10922 10924 10924 10927 10942 10927 10943 10939
10912 10915 10915 10917 10918 10919 10919 10918 10917 10920 10922 10927 10930 10931 10930 10921 10924 10926 10932 10933 10922 10918 10917 10916 10910 10912 10916 10916 10917 10916 10916 10916 10913 10912 10912 10913 10914 10915 10917 10920 10926 10927 10927 10929
10904 10906 10911 10909 10910 10910 10911 10910 10912 10913 10916 10920 10928 10923 10918 10917 10917 10919 10923 10925 10915 10905 10908 10900 10903 10905 10908 10907 10904 10904 10902 10904 10903 10901 10901 10902 10904 10906 10906 10909 10912 10916 10918 10920
10896 10900 10903 10902 10903 10902 10902 10903 10905 10906 10908 10911 10910 10912 10912 10910 10912 10911 10906 10913 10915 10905 10904 10904 10912 10910 10904 10899 10894 10889 10887 10886 10886 10888 10889 10890 10892 10894 10897 10899 10902 10903 10911 10909
10890 10891 10893 10895 10894 10899 10899 10898 10899 10901 10903 10904 10904 10896 10905 10904 10905 10900 10893 10894 10899 10900 10904 10913 10890 10888 10872 10870 10873 10875 10870 10869 10869 10870 10873 10872 10878 10881 10881 10884 10888 10889 10893 10897
10881 10883 10885 10887 10889 10893 10892 10893 10894 10895 10897 10898 10897 10890 10894 10894 10901 10896 10887 10882 10877 10884 10889 10900 10881 10884 10862 10852 10860 10855 10853 10851 10850 10851 10853 10855 10859 10862 10862 10866 10872 10876 10875 10881
10873 10876 10878 10881 10886 10893 10892 10889 10887 10889 10890 10891 10889 10887 10883 10885 10882 10878 10877 10872 10870 10862 10866 10866 10865 10870 10859 10850 10841 10836 10836 10832 10832 10831 10835 10837 10839 10842 10845 10848 10856 10858 10861 10869
10865 10868 10872 10875 10878 10881 10880 10882 10882 10883 10883 10882 10881 10877 10880 10878 10869 10863 10862 10854 10851 10848 10842 10836 10834 10828 10826 10827 10818 10818 10818 10814 10811 10813 10815 10816 10820 10822 10825 10830 10835 10840 10845 10853
10858 10861 10866 10868 10870 10874 10876 10872 10878 10877 10874 10873 10871 10866 10870 10863 10858 10853 10847 10844 10837 10827 10821 10818 10813 10810 10806 10800 10798 10800 10798 10788 10791 10789 10790 10792 10795 10801 10805 10811 10817 10822 10828 10837
10850 10854 10858 10860 10864 10867 10864 10869 10872 10869 10865 10865 10863 10856 10853 10851 10844 10834 10832 10829 10821 10810 10803 10799 10795 10789 10785 10781 10774 10770 10772 10767 10760 10760 10761 10763 10766 10774 10782 10789 10796 10803 10809 10818
10846 10850 10853 10855 10857 10859 10859 10868 10860 10856 10856 10860 10852 10843 10840 10834 10825 10812 10813 10804 10800 10794 10788 10778 10770 10766 10761 10755 10749 10746 10740 10734 10730 10726 10726 10729 10735 10743 10751 10762 10771 10780 10788 10796
10842 10845 10848 10850 10852 10852 10858 10857 10851 10849 10848 10846 10838 10832 10825 10817 10810 10798 10795 10790 10781 10773 10767 10758 10749 10739 10734 10727 10720 10715 10707 10702 10697 10695 10696 10699 10703 10709 10717 10729 10742 10754 10765 10774
10838 10840 10842 10844 10846 10847 10850 10845 10840 10840 10836 10832 10827 10820 10812 10804 10797 10789 10779 10768 10758 10753 10746 10738 10728 10716 10707 10697 10691 10686 10681 10678 10677 10674 10674 10676 10679 10683 10688 10697 10712 10726 10738 10750
10833 10835 10835 10838 10838 10841 10837 10837 10830 10826 10822 10817 10812 10805 10799 10791 10783 10774 10765 10755 10744 10731 10716 10706 10697 10688 10681 10674 10667 10665 10663 10662 10662 10659 10656 10657 10660 10664 10669 10675 10685 10700 10714 10727
10826 10827 10828 10829 10830 10830 10828 10825 10824 10815 10810 10802 10796 10790 10784 10777 10768 10756 10745 10733 10721 10709 10696 10684 10675 10669 10663 10658 10655 10652 10649 10647 10645 10647 10645 10643 10643 10647 10651 10657 10663 10674 10690 10702
10817 10818 10820 10819 10822 10819 10815 10814 10810 10805 10798 10791 10784 10778 10771 10762 10750 10740 10727 10712 10698 10686 10678 10671 10664 10658 10653 10647 10644 10641 10638 10636 10633 10631 10631 10631 10630 10631 10633 10637 10645 10654 10665 10678
10814 10807 10811 10812 10810 10806 10808 10802 10797 10790 10784 10778 10772 10764 10755 10745 10732 10719 10706 10690 10679 10673 10666 10660 10656 10651 10646 10641 10636 10631 10628 10625 10623 10621 10619 10617 10615 10616 10618 10620 10626 10633 10642 10655
10801 10800 10802 10804 10799 10796 10795 10792 10786 10779 10772 10766 10760 10750 10740 10727 10715 10700 10687 10678 10669 10661 10653 10648 10644 10641 10637 10632 10627 10620 10616 10613 10610 10607 10605 10604 10602 10602 10603 10606 10608 10614 10621 10631